Flag for Germany Weather past 2 weeks in Moers, North Rhine-Westphalia, Germany

Now
41 °F

Clear.


Feels Like: 41 °F
Forecast: 40 / 61 °F
Wind: 2 mph from Northeast

Location: Duesseldorf

Current Time: Apr 21, 2015 at 8:00:20 AM

Latest Report: Apr 21, 2015 at 7:20 AM


Visibility: 10 mi

Pressure: 30.42 "Hg

Humidity: 87%

Dew point: 37 °F

Location of MoersLocation

Historic Weather in Moers — Graph

°F

Moers temperature yesterday

Maximum temperature yesterday: 66 °F (at 3:20 PM)
Minimum temperature yesterday: 39 °F (at 6:20 AM)
Average temperature yesterday: 55 °F

Past Weeks' High & Low Weather Summary

 TemperatureHumidityPressure
High75 °F (Apr 15, 3:20 PM)100% (Apr 7, 6:50 AM)30.66 "Hg (Apr 7, 6:50 AM)
Low28 °F (Apr 7, 6:50 AM)25% (Apr 12, 4:50 PM)29.92 "Hg (Apr 15, 6:50 PM)
Average51 °F64%30.27 "Hg
* Reported Apr 6 6:20 AM — Apr 21 6:50 AM, Moers, Weather by CustomWeather, © 2015

Note: Actual official high and low records may vary slightly from our data, if they occured in-between our weather recording intervals... More about our weather records

Advertising

Moers weather history for previous 24 hours

 ConditionsComfort  
Time TempWeatherWind HumidityBarometerVisibility
6:50 AM
Tue, Apr 21
39 °FClear.2 mph87%30.42 "Hg10 mi
6:20 AM41 °FClear.2 mph87%30.42 "Hg10 mi
5:20 AM41 °FClear.3 mph81%30.42 "Hg10 mi
4:50 AM41 °FClear.5 mph81%30.42 "Hg10 mi
4:20 AM41 °FClear.2 mph81%30.42 "Hg10 mi
3:50 AM41 °FClear.5 mph81%30.39 "Hg10 mi
3:20 AM43 °FClear.2 mph76%30.39 "Hg10 mi
2:50 AM45 °FClear.5 mph71%30.39 "Hg10 mi
2:20 AM45 °FClear.3 mph71%30.39 "Hg10 mi
1:50 AM46 °FClear.2 mph62%30.39 "Hg10 mi
1:20 AM48 °FClear.5 mph62%30.39 "Hg10 mi
12:50 AM50 °FClear.2 mph58%30.39 "Hg10 mi
12:20 AM52 °FClear.7 mph54%30.36 "Hg10 mi
11:50 PM
Mon, Apr 20
55 °FClear.8 mph47%30.36 "Hg10 mi
11:20 PM55 °FClear.9 mph47%30.36 "Hg10 mi
10:50 PM55 °FClear.10 mph55%30.36 "Hg10 mi
10:20 PM55 °FClear.7 mph55%30.36 "Hg10 mi
9:50 PM55 °FClear.6 mph55%30.36 "Hg10 mi
9:20 PM57 °FSunny.6 mph48%30.36 "Hg10 mi
8:50 PM59 °FSunny.6 mph45%30.33 "Hg10 mi
8:20 PM63 °FSunny.6 mph37%30.33 "Hg10 mi
7:50 PM64 °FSunny.8 mph32%30.33 "Hg10 mi
7:20 PM64 °FSunny.9 mph34%30.33 "Hg10 mi
6:50 PM66 °FSunny.9 mph32%30.33 "Hg10 mi
6:20 PM66 °FSunny.12 mph30%30.33 "Hg10 mi
5:50 PM66 °FSunny.10 mph30%30.33 "Hg10 mi
5:20 PM66 °FSunny.14 mph28%30.33 "Hg10 mi
4:50 PM66 °FSunny.12 mph26%30.33 "Hg10 mi
4:20 PM66 °FSunny.14 mph26%30.33 "Hg10 mi
3:50 PM66 °FSunny.14 mph30%30.33 "Hg10 mi
3:20 PM66 °FSunny.12 mph28%30.33 "Hg10 mi
2:50 PM64 °FSunny.9 mph30%30.33 "Hg10 mi
2:20 PM64 °FPassing clouds.9 mph34%30.36 "HgN/A
1:50 PM63 °FSunny.7 mph34%30.36 "Hg10 mi
1:20 PM63 °FSunny.10 mph32%30.36 "Hg10 mi
12:50 PM63 °FSunny.14 mph34%30.36 "Hg10 mi
12:20 PM61 °FSunny.12 mph34%30.36 "Hg10 mi
11:50 AM61 °FSunny.15 mph39%30.36 "Hg10 mi
11:20 AM61 °FSunny.15 mph36%30.36 "Hg10 mi
10:50 AM59 °FSunny.9 mph39%30.33 "Hg10 mi
10:20 AM57 °FSunny.6 mph51%30.33 "Hg10 mi
9:50 AM55 °FSunny.5 mph55%30.33 "Hg10 mi
9:20 AM52 °FSunny.3 mph62%30.33 "Hg10 mi
8:50 AM48 °FSunny.5 mph71%30.33 "Hg10 mi
8:20 AM46 °FSunny.5 mph76%30.33 "Hg10 mi
Weather by CustomWeather, © 2015

See weather overviewHow to use our weather pages